• In Hungary
  • List of Countries
  • For 7 days
  • Water Temperature
  • Satellite Maps
  • Weather Map
  • News
  • Weather Widgets
  • user-avatar
    Login

    Hourly Weather Shusha

    Today, 21 October, Sunday

    Time Temperature Precipitation Wind Pressure Humidity
    00:00 +13°C° 0 mm 1 mps 660 mmHg 67%
    01:00 +13°C° 0 mm 1 mps 660 mmHg 66%
    02:00 +12°C° 0 mm 1 mps 660 mmHg 66%
    03:00 +12°C° 0 mm 1 mps 660 mmHg 66%
    04:00 +12°C° 0 mm 1 mps 660 mmHg 66%
    05:00 +12°C° 0 mm 1 mps 660 mmHg 66%
    06:00 +11°C° 0 mm 1 mps 660 mmHg 66%
    07:00 +13°C° 0 mm 1 mps 661 mmHg 61%
    08:00 +15°C° 0 mm 1 mps 661 mmHg 57%
    09:00 +18°C° 0 mm 1 mps 662 mmHg 52%
    10:00 +18°C° 0 mm 2 mps 662 mmHg 49%
    11:00 +19°C° 0 mm 2 mps 662 mmHg 46%
    12:00 +20°C° 0 mm 2 mps 662 mmHg 43%
    13:00 +20°C° 0 mm 2 mps 662 mmHg 44%
    14:00 +20°C° 0 mm 2 mps 662 mmHg 44%
    15:00 +20°C° 0 mm 2 mps 661 mmHg 45%
    16:00 +18°C° 0 mm 2 mps 661 mmHg 51%
    17:00 +18°C° 0 mm 1 mps 661 mmHg 56%
    18:00 +16°C° 0 mm 1 mps 661 mmHg 62%
    19:00 +15°C° 0 mm 1 mps 661 mmHg 64%
    20:00 +14°C° 0 mm 0 mps 661 mmHg 65%
    21:00 +13°C° 0 mm 0 mps 661 mmHg 67%
    22:00 +13°C° 0 mm 0 mps 661 mmHg 67%
    23:00 +13°C° 0 mm 1 mps 660 mmHg 68%

    Tomorrow, 22 October, Monday

    Time Temperature Precipitation Wind Pressure Humidity
    00:00 +13°C° 0 mm 1 mps 660 mmHg 68%
    01:00 +13°C° 0 mm 1 mps 660 mmHg 69%
    02:00 +12°C° 0 mm 1 mps 660 mmHg 69%
    03:00 +12°C° 0 mm 1 mps 660 mmHg 70%
    04:00 +12°C° 0 mm 1 mps 660 mmHg 70%
    05:00 +12°C° 0 mm 1 mps 660 mmHg 71%
    06:00 +12°C° 0 mm 1 mps 660 mmHg 72%
    07:00 +13°C° 0 mm 1 mps 661 mmHg 67%
    08:00 +15°C° 0 mm 1 mps 661 mmHg 62%
    09:00 +16°C° 0 mm 1 mps 662 mmHg 57%
    10:00 +17°C° 0 mm 2 mps 662 mmHg 54%
    11:00 +18°C° 0 mm 2 mps 662 mmHg 51%
    12:00 +19°C° 0 mm 3 mps 662 mmHg 49%
    13:00 +19°C° 0 mm 3 mps 662 mmHg 49%
    14:00 +19°C° 0 mm 3 mps 662 mmHg 50%
    15:00 +19°C° 0 mm 3 mps 662 mmHg 51%
    16:00 +17°C° 0 mm 2 mps 661 mmHg 57%
    17:00 +16°C° 0 mm 2 mps 661 mmHg 64%
    18:00 +14°C° 0 mm 1 mps 661 mmHg 70%
    19:00 +14°C° 0 mm 1 mps 661 mmHg 71%
    20:00 +14°C° 0 mm 1 mps 661 mmHg 72%
    21:00 +13°C° 0 mm 1 mps 661 mmHg 72%
    22:00 +13°C° 0 mm 1 mps 661 mmHg 72%
    23:00 +13°C° 0 mm 1 mps 661 mmHg 73%

    Day after tomorrow, 23 October, Tuesday

    Time Temperature Precipitation Wind Pressure Humidity
    00:00 +13°C° 0 mm 1 mps 661 mmHg 73%
    01:00 +12°C° 0 mm 1 mps 661 mmHg 72%
    02:00 +12°C° 0 mm 1 mps 661 mmHg 72%
    03:00 +12°C° 0 mm 1 mps 661 mmHg 72%
    04:00 +12°C° 0 mm 1 mps 661 mmHg 72%
    05:00 +12°C° 0 mm 1 mps 661 mmHg 72%
    06:00 +11°C° 0 mm 1 mps 660 mmHg 72%
    07:00 +13°C° 0 mm 1 mps 661 mmHg 66%
    08:00 +15°C° 0 mm 1 mps 662 mmHg 60%
    09:00 +16°C° 0 mm 1 mps 662 mmHg 54%
    10:00 +17°C° 0 mm 2 mps 662 mmHg 50%
    11:00 +18°C° 0 mm 2 mps 662 mmHg 46%
    12:00 +19°C° 0 mm 3 mps 662 mmHg 42%
    13:00 +20°C° 0 mm 3 mps 661 mmHg 42%
    14:00 +20°C° 0 mm 3 mps 661 mmHg 42%
    15:00 +20°C° 0 mm 3 mps 661 mmHg 41%
    16:00 +18°C° 0 mm 2 mps 660 mmHg 48%
    17:00 +16°C° 0 mm 1 mps 660 mmHg 54%
    18:00 +14°C° 0 mm 0 mps 659 mmHg 60%
    19:00 +14°C° 0 mm 1 mps 660 mmHg 61%
    20:00 +14°C° 0 mm 1 mps 660 mmHg 61%
    21:00 +14°C° 0 mm 1 mps 660 mmHg 62%
    22:00 +13°C° 0 mm 1 mps 660 mmHg 62%
    23:00 +13°C° 0 mm 1 mps 659 mmHg 62%

    24 October, Wednesday

    Time Temperature Precipitation Wind Pressure Humidity
    00:00 +13°C° 0 mm 1 mps 659 mmHg 62%
    01:00 +13°C° 0 mm 1 mps 659 mmHg 61%
    02:00 +12°C° 0 mm 1 mps 659 mmHg 61%
    03:00 +12°C° 0 mm 1 mps 658 mmHg 60%
    04:00 +12°C° 0 mm 1 mps 658 mmHg 60%
    05:00 +12°C° 0 mm 1 mps 658 mmHg 60%
    06:00 +12°C° 0 mm 1 mps 658 mmHg 60%
    07:00 +13°C° 0 mm 1 mps 659 mmHg 55%
    08:00 +15°C° 0 mm 1 mps 659 mmHg 49%
    09:00 +17°C° 0 mm 2 mps 660 mmHg 43%
    10:00 +18°C° 0 mm 2 mps 659 mmHg 40%
    11:00 +19°C° 0 mm 2 mps 659 mmHg 37%
    12:00 +21°C° 0 mm 3 mps 659 mmHg 34%
    13:00 +21°C° 0 mm 3 mps 658 mmHg 33%
    14:00 +21°C° 0 mm 3 mps 658 mmHg 33%
    15:00 +21°C° 0 mm 3 mps 657 mmHg 33%
    16:00 +19°C° 0 mm 2 mps 657 mmHg 38%
    17:00 +18°C° 0 mm 1 mps 656 mmHg 43%
    18:00 +16°C° 0 mm 1 mps 656 mmHg 48%
    19:00 +15°C° 0 mm 1 mps 656 mmHg 48%
    20:00 +15°C° 0 mm 1 mps 656 mmHg 49%
    21:00 +15°C° 0 mm 1 mps 656 mmHg 49%
    22:00 +15°C° 0 mm 1 mps 656 mmHg 50%
    23:00 +15°C° 0 mm 1 mps 655 mmHg 50%

    25 October, Thursday

    Time Temperature Precipitation Wind Pressure Humidity
    00:00 +14°C° 0 mm 1 mps 655 mmHg 51%
    01:00 +14°C° 0 mm 2 mps 655 mmHg 52%
    02:00 +13°C° 0 mm 2 mps 654 mmHg 52%
    03:00 +13°C° 0 mm 2 mps 654 mmHg 53%
    04:00 +13°C° 0 mm 2 mps 654 mmHg 54%
    05:00 +13°C° 0 mm 2 mps 654 mmHg 55%
    06:00 +12°C° 0 mm 2 mps 654 mmHg 55%
    07:00 +15°C° 0 mm 2 mps 654 mmHg 50%
    08:00 +17°C° 0 mm 2 mps 654 mmHg 44%
    09:00 +19°C° 0 mm 2 mps 655 mmHg 38%
    10:00 +20°C° 0 mm 3 mps 655 mmHg 35%
    11:00 +22°C° 0 mm 4 mps 654 mmHg 31%
    12:00 +23°C° 0 mm 5 mps 654 mmHg 28%
    13:00 +23°C° 0 mm 4 mps 654 mmHg 29%
    14:00 +23°C° 0 mm 4 mps 653 mmHg 30%
    15:00 +22°C° 0 mm 4 mps 653 mmHg 31%
    16:00 +21°C° 0.1 mm 3 mps 652 mmHg 37%
    17:00 +19°C° 0.1 mm 2 mps 652 mmHg 44%
    18:00 +18°C° 0.1 mm 1 mps 651 mmHg 50%
    19:00 +16°C° 0 mm 1 mps 651 mmHg 51%
    20:00 +16°C° 0 mm 2 mps 651 mmHg 52%
    21:00 +16°C° 0 mm 2 mps 651 mmHg 52%
    22:00 +15°C° 0 mm 2 mps 651 mmHg 52%
    23:00 +15°C° 0 mm 2 mps 651 mmHg 53%

    26 October, Friday

    Time Temperature Precipitation Wind Pressure Humidity
    00:00 +15°C° 0 mm 2 mps 651 mmHg 53%
    01:00 +14°C° 0 mm 2 mps 651 mmHg 53%
    02:00 +14°C° 0 mm 2 mps 651 mmHg 54%
    03:00 +14°C° 0 mm 2 mps 651 mmHg 55%
    04:00 +13°C° 0 mm 2 mps 652 mmHg 56%
    05:00 +13°C° 0 mm 2 mps 652 mmHg 57%
    06:00 +13°C° 0 mm 2 mps 652 mmHg 59%
    07:00 +13°C° 0 mm 3 mps 653 mmHg 57%
    08:00 +14°C° 0 mm 3 mps 653 mmHg 55%
    09:00 +16°C° 0 mm 3 mps 654 mmHg 53%
    10:00 +15°C° 0 mm 4 mps 654 mmHg 53%
    11:00 +15°C° 0 mm 4 mps 654 mmHg 53%
    12:00 +16°C° 0 mm 5 mps 654 mmHg 54%
    13:00 +14°C° 0.1 mm 5 mps 654 mmHg 59%
    14:00 +13°C° 0.1 mm 5 mps 653 mmHg 63%
    15:00 +12°C° 0.1 mm 4 mps 653 mmHg 68%
    16:00 +11°C° 0.2 mm 4 mps 653 mmHg 72%
    17:00 +10°C° 0.2 mm 4 mps 654 mmHg 75%
    18:00 +8°C° 0.2 mm 4 mps 654 mmHg 79%
    19:00 +7°C° 1 mm 4 mps 655 mmHg 77%
    20:00 +7°C° 1 mm 4 mps 655 mmHg 76%
    21:00 +6°C° 1 mm 4 mps 656 mmHg 75%
    22:00 +6°C° 2.2 mm 4 mps 657 mmHg 75%
    23:00 +7°C° 2.2 mm 3 mps 658 mmHg 75%
    Show more